星链-1491 (STARLINK-1491 )

导读 | 豆包AI

STARLINK-1491是美国SpaceX公司于2020年6月13日发射的星链网络卫星,属于星链第一代低轨互联网星座组网卫星之一,运行在近地轨道。 作为星链项目的组成部分,它承担着为全球偏远和基础设施匮乏区域提供高速低延迟宽带互联网接入的任务,助力SpaceX构建覆盖全球的卫星互联网通信服务网络,也推动了低轨巨型星座的发展进程。

基本信息
目录编号:
45778
目录名称:
STARLINK-1491
国际标识:
2020-038BA
轨道中心:
EARTH
卫星名称:
星链-1491
卫星全名:
星链-1491 (STARLINK-1491 )
卫星状态:
已陨落 最后检测时间 2025-08-21
发射日期:
2020-06-13 UTC
国别 :
美国 (US)
星等 :
--
轨道信息
数据来源 国际轨道数据
星历时间: 2025-08-20T20:10:06+0800
轨道信息已过期226天
半长轴: 6562.079km
偏心率: 0.0003094
轨道倾角: 53.015°
近地点辐角 357.142°
升交点赤经 266.953°
平近点角 162.813°
近地点: 181.913km
远地点: 185.975km
周期: 88.170分钟
每日圈数: 16.332049
详细信息
固有亮度:
5
最大亮度:
2.5
卫星平台:
Starlink V1.0
覆盖范围:
全球
运营商:
太空探索技术公司
运营商所在国:
美国
制造商(研发单位):
太空探索技术公司
制造商所在国:
美国
使用方式:
暂无
卫星简介
星链(Starlink)计划是由太空探索技术公司(SpaceX)提出的一个巨型低轨卫星互联网星座项目,计划在2019年至2024年间在太空搭建由约1.2万颗卫星组成的“星链”网络,其中1584颗将部署在地球上空550千米处的近地轨道,并从2020年开始工作。该卫星仍在工作。